Tracking 35274 objects as of 10-Sep-2026
HD Live streaming from Space Station
objects crossing your sky now

KSF3-B


KSF3-B is no longer on orbit


NORAD ID: 55019
Int'l Code: 2023-001L
Launch date: January 3, 2023
Source: Luxembourg (LUXE)
Launch site: AIR FORCE EASTERN TEST RANGE (AFETR)
Decay date: 2025-12-07
Your satellite tracking list
Your tracking list is empty




NASA's NSSDC Master Catalog

Two Line Element Set (TLE):
1 55019U 23001L   25341.61621245  .12892631  24942-5  46037-3 0  9999
2 55019  97.3197  60.0279 0011713 286.9588  73.0429 16.43288850163977
Source of the keplerian elements: AFSPC